Weather reports worldwide

Advertisment
Lannion, France (7118): temperature & dewpoint: 19.09.2018 08:00:00 - 25.09.2018 08:00:00 (CEST)Lannion, France (7118): wind speed & gusts: 19.09.2018 08:00:00 - 25.09.2018 08:00:00 (CEST)Lannion, France (7118): wind direction: 19.09.2018 08:00:00 - 25.09.2018 08:00:00 (CEST)Lannion, France (7118): reduced air pressure: 19.09.2018 08:00:00 - 25.09.2018 08:00:00 (CEST)Lannion, France (7118): visibility: 19.09.2018 08:00:00 - 25.09.2018 08:00:00 (CEST)Lannion, France (7118): precipitation: 19.09.2018 08:00:00 - 25.09.2018 08:00:00 (CEST)
Date & Time tt [°C] td [°C] ff [km/h] ff [kn] fx [km/h] fx [kn] dd ppp [hPa] vv [km] rr [mm]
25.09.2018 08:00:00 - - - - - - - - - -
25.09.2018 07:00:00 4,3 3,4 6 4 10 5 SE 1037,0 60 0,0
25.09.2018 06:00:00 5,1 4,2 4 2 6 3 SE 1037,2 56 0,0
25.09.2018 05:00:00 5,5 4,3 4 2 9 5 SSE 1037,3 19 0,0
25.09.2018 04:00:00 6,1 4,6 4 2 9 5 SSE 1037,4 60 0,0
25.09.2018 03:00:00 10,1 5,7 5 3 15 8 ENE 1037,7 60 0,0
25.09.2018 02:00:00 10,9 5,8 10 6 19 11 E 1037,3 60 0,0
25.09.2018 01:00:00 10,9 6,2 9 5 18 10 ENE 1038,2 60 0,0
25.09.2018 00:00:00 11,3 6,4 9 5 17 9 NE 1038,1 60 0,0
24.09.2018 23:00:00 11,4 5,9 9 5 16 9 ENE 1038,0 60 0,0
24.09.2018 22:00:00 11,2 5,7 6 3 12 6 NE 1038,2 60 0,0
24.09.2018 21:00:00 11,7 5,8 6 3 17 9 NE 1037,8 60 0,0
24.09.2018 20:00:00 12,6 6,2 6 3 20 11 NNE 1037,6 60 0,0
24.09.2018 19:00:00 13,9 6,3 10 5 32 17 NE 1037,2 58 0,0
24.09.2018 18:00:00 14,6 6,4 17 9 35 19 NNE 1037,3 60 0,0
24.09.2018 17:00:00 15,0 6,0 18 10 33 18 N 1037,7 60 0,0
24.09.2018 16:00:00 14,8 6,1 19 10 33 18 N 1037,9 53 0,0
24.09.2018 15:00:00 15,6 6,8 12 7 32 17 NNE 1038,0 60 0,0
24.09.2018 14:00:00 15,4 6,1 18 10 31 17 N 1038,3 20 0,0
24.09.2018 13:00:00 15,5 5,1 17 9 27 15 N 1038,6 60 0,0
24.09.2018 12:00:00 15,3 5,8 16 9 29 16 NNE 1038,6 60 0,0
24.09.2018 11:00:00 15,3 6,6 11 6 24 13 NE 1038,4 58 0,0
24.09.2018 10:00:00 14,2 6,5 10 5 23 13 N 1037,5 60 0,0
24.09.2018 09:00:00 12,0 6,1 4 2 15 8 NE 1037,0 60 0,0
24.09.2018 08:00:00 10,6 5,1 4 2 12 6 NE 1036,4 60 0,0
24.09.2018 07:00:00 11,8 5,4 6 3 23 12 NNE 1036,2 60 0,0
24.09.2018 06:00:00 12,5 5,4 10 5 21 11 NNE 1035,7 60 0,0
24.09.2018 05:00:00 12,7 5,6 10 6 29 16 NNE 1035,3 60 0,0
24.09.2018 04:00:00 12,6 6,6 14 7 25 13 N 1035,1 60 0,0
24.09.2018 03:00:00 11,6 5,9 10 5 18 10 N 1034,6 60 0,0
24.09.2018 02:00:00 11,6 5,0 10 5 23 12 N 1034,1 60 0,0
24.09.2018 01:00:00 11,7 5,6 10 5 21 12 NNW 1033,7 60 0,0
24.09.2018 00:00:00 12,0 4,5 15 8 26 14 N 1032,9 60 0,0
23.09.2018 23:00:00 11,9 4,4 12 7 29 16 N 1032,2 60 0,0
23.09.2018 22:00:00 12,3 5,9 11 6 30 16 NNW 1031,2 60 0,0
23.09.2018 21:00:00 12,9 6,0 17 9 35 19 NW 1029,6 60 0,0
23.09.2018 20:00:00 12,2 7,5 3 2 26 14 NW 1029,0 60 0,0
23.09.2018 19:00:00 13,4 7,2 14 8 37 20 NNW 1027,7 51 0,0
23.09.2018 18:00:00 13,6 6,9 22 12 45 25 N 1026,7 60 0,0
23.09.2018 17:00:00 13,5 7,3 26 14 48 26 N 1025,6 60 0,0
23.09.2018 16:00:00 13,2 8,5 24 13 43 23 N 1024,4 44 0,0
23.09.2018 15:00:00 13,4 10,6 21 12 39 21 N 1022,9 53 0,0
23.09.2018 14:00:00 13,2 11,6 20 11 46 25 N 1021,3 14 0,4
23.09.2018 13:00:00 13,9 13,3 23 13 40 22 N 1019,4 3,2 0,8
23.09.2018 12:00:00 14,4 13,8 11 6 40 22 WNW 1017,4 2,2 1,0
23.09.2018 11:00:00 14,2 13,2 24 13 40 22 NW 1016,1 1,8 0,6
23.09.2018 10:00:00 17,7 16,9 25 13 46 25 WSW 1014,4 8 0,0
23.09.2018 09:00:00 17,7 17,2 25 13 41 22 SW 1013,9 7 0,2
23.09.2018 08:00:00 17,7 17,2 24 13 39 21 SW 1013,8 4,3 0,6
23.09.2018 07:00:00 17,9 17,4 21 12 38 20 SW 1014,1 3,2 0,2
23.09.2018 06:00:00 18,0 17,5 25 13 39 21 SW 1014,3 13 0,3
23.09.2018 05:00:00 18,0 17,5 24 13 42 23 SW 1014,5 4,7 0,4
23.09.2018 04:00:00 18,1 17,6 24 13 39 21 WSW 1015,0 1,8 1,0
23.09.2018 03:00:00 18,2 17,7 25 13 38 20 SW 1015,2 2,5 0,8
23.09.2018 02:00:00 18,4 17,9 28 15 46 25 SW 1015,3 3,0 1,6
23.09.2018 01:00:00 18,3 17,8 26 14 43 23 SW 1015,3 2,3 0,8
23.09.2018 00:00:00 18,3 17,8 27 15 53 28 SW 1015,1 2,3 1,0
22.09.2018 23:00:00 18,3 17,8 27 15 45 25 SW 1015,0 3,2 0,2
22.09.2018 22:00:00 18,4 17,9 26 14 45 25 SW 1014,5 5 0,0
22.09.2018 21:00:00 18,4 17,7 27 15 44 24 SW 1014,3 5 0,4
22.09.2018 20:00:00 18,5 17,8 29 15 45 24 SW 1013,9 1,9 1,0
22.09.2018 19:00:00 18,7 18,0 32 17 55 30 SW 1013,5 4,0 0,2
22.09.2018 18:00:00 18,8 18,1 33 18 57 31 SW 1013,3 9 0,2
22.09.2018 17:00:00 18,9 18,1 27 15 53 29 SW 1013,3 5 0,6
22.09.2018 16:00:00 17,9 16,9 27 14 58 31 SSW 1013,4 13 0,6
22.09.2018 15:00:00 17,6 15,2 31 17 68 37 S 1013,6 52 0,0
22.09.2018 14:00:00 15,9 13,4 34 18 61 33 S 1014,8 57 0,0
22.09.2018 13:00:00 14,5 12,0 26 14 48 26 SSE 1016,3 60 0,0
22.09.2018 12:00:00 12,7 11,4 19 11 32 17 SE 1018,2 20 0,4
22.09.2018 11:00:00 12,7 10,8 17 9 27 15 SE 1019,9 56 0,0
22.09.2018 10:00:00 12,3 10,2 12 6 25 13 SSE 1020,7 52 0,4
22.09.2018 09:00:00 11,8 9,5 5 3 12 6 SSE 1021,2 41 0,0
22.09.2018 08:00:00 11,3 9,7 8 4 13 7 SE 1021,0 60 0,0
22.09.2018 07:00:00 11,5 9,7 9 5 13 7 SE 1021,7 56 0,0
22.09.2018 06:00:00 12,0 9,2 6 4 16 9 S 1022,0 20 0,0
22.09.2018 05:00:00 11,9 8,7 8 5 14 8 S 1022,7 60 0,0
22.09.2018 04:00:00 11,8 8,6 9 5 14 8 S 1022,8 60 0,0
22.09.2018 03:00:00 11,8 8,8 9 5 16 9 SSW 1023,1 60 0,0
22.09.2018 02:00:00 11,8 8,8 9 5 14 8 S 1023,0 60 0,0
22.09.2018 01:00:00 12,1 8,6 8 5 15 8 SSW 1023,2 59 0,0
22.09.2018 00:00:00 12,4 8,5 10 5 16 8 SSW 1023,3 60 0,0
21.09.2018 23:00:00 12,1 8,2 10 5 16 9 SSW 1023,1 60 0,0
21.09.2018 22:00:00 12,3 8,2 8 5 25 14 SSW 1022,5 60 0,0
21.09.2018 21:00:00 13,5 7,9 18 10 34 19 WSW 1021,9 60 0,0
21.09.2018 20:00:00 13,6 7,8 22 12 37 20 W 1021,7 60 0,0
21.09.2018 19:00:00 14,7 8,4 23 13 43 23 W 1021,1 53 0,0
21.09.2018 18:00:00 16,1 7,8 28 15 47 25 W 1020,5 20 0,0
21.09.2018 17:00:00 15,6 7,9 32 17 51 27 W 1020,4 20 0,0
21.09.2018 16:00:00 16,0 6,7 32 17 50 27 W 1020,2 30 0,0
21.09.2018 15:00:00 16,4 9,1 33 18 51 27 W 1019,7 20 0,0
21.09.2018 14:00:00 16,3 8,5 32 17 49 26 W 1019,1 19 0,0
21.09.2018 13:00:00 14,8 7,6 32 17 48 26 W 1018,4 39 0,0
21.09.2018 12:00:00 15,2 9,1 28 15 47 25 W 1017,7 40 0,0
21.09.2018 11:00:00 14,5 7,5 27 15 48 26 W 1016,7 55 -
21.09.2018 10:00:00 13,9 7,9 25 14 41 22 W 1015,7 20 0,0
21.09.2018 09:00:00 12,6 7,3 26 14 42 23 W 1014,6 56 0,0
21.09.2018 08:00:00 12,3 7,6 26 14 48 26 WNW 1013,3 60 0,0
21.09.2018 07:00:00 12,5 8,6 29 15 54 29 WNW 1012,1 55 0,0
21.09.2018 06:00:00 12,9 8,2 35 19 65 35 W 1011,0 47 0,0
21.09.2018 05:00:00 13,0 8,3 40 22 69 38 W 1010,1 44 0,0
21.09.2018 04:00:00 14,2 10,4 42 23 69 38 W 1009,0 18 0,0
21.09.2018 03:00:00 14,7 11,8 37 20 58 31 W 1008,2 18 0,0
21.09.2018 02:00:00 15,2 13,4 36 20 78 42 W 1007,5 13 1,1
21.09.2018 01:00:00 17,9 16,8 26 14 52 28 S 1004,6 2,7 2,8
21.09.2018 00:00:00 17,9 16,4 26 14 54 29 S 1005,9 17 2,0
20.09.2018 23:00:00 18,4 15,3 34 18 56 31 SSW 1007,5 8 0,2
20.09.2018 22:00:00 19,2 14,9 26 14 50 27 SSW 1008,0 50 0,0
20.09.2018 21:00:00 19,3 15,0 31 17 54 29 SSW 1008,9 50 0,0
20.09.2018 20:00:00 19,4 15,7 28 15 53 29 SSW 1009,7 51 0,0
20.09.2018 19:00:00 20,2 15,2 26 14 51 27 S 1010,1 48 0,0
20.09.2018 18:00:00 20,9 15,0 32 18 54 29 SSW 1010,8 49 0,0
20.09.2018 17:00:00 21,7 14,1 35 19 62 33 SSW 1012,0 53 0,0
20.09.2018 16:00:00 22,8 13,8 35 19 63 34 SSW 1012,3 35 0,0
20.09.2018 15:00:00 22,6 13,1 37 20 65 35 SSW 1012,9 41 0,0
20.09.2018 14:00:00 22,5 13,6 37 20 59 32 SSW 1013,5 30 0,0
20.09.2018 13:00:00 20,2 14,6 26 14 48 26 SSW 1014,3 20 0,0
20.09.2018 12:00:00 20,3 14,2 32 17 56 31 SSW 1014,7 29 0,0
20.09.2018 11:00:00 19,3 14,5 27 15 48 26 SSW 1015,2 19 0,0
20.09.2018 10:00:00 18,0 15,1 19 11 31 17 SSW 1015,6 18 0,0
20.09.2018 09:00:00 16,5 14,3 13 7 22 12 S 1015,6 18 0,0
20.09.2018 08:00:00 15,7 13,5 9 5 22 12 SSW 1015,9 14 0,0
20.09.2018 07:00:00 16,3 13,8 14 8 26 14 SSW 1016,1 18 0,0
20.09.2018 06:00:00 16,2 13,7 15 8 26 14 SSW 1016,4 16 0,0
20.09.2018 05:00:00 16,8 13,9 13 7 24 13 SSW 1016,7 19 0,0
20.09.2018 04:00:00 16,7 14,0 15 8 40 21 S 1016,8 18 0,0
20.09.2018 03:00:00 16,5 14,0 18 10 34 18 SSW 1017,2 18 0,0
20.09.2018 02:00:00 16,4 14,2 15 8 29 16 SSW 1017,1 18 0,0
20.09.2018 01:00:00 16,5 14,3 16 9 26 14 SSW 1017,2 17 0,0
20.09.2018 00:00:00 16,3 14,3 11 6 21 11 SSW 1017,6 17 0,0
19.09.2018 23:00:00 16,6 14,2 11 6 20 11 SSW 1018,0 18 0,0
19.09.2018 22:00:00 17,7 14,6 15 8 27 15 SSW 1017,8 19 0,0
19.09.2018 21:00:00 18,4 14,5 14 8 33 18 SSW 1017,8 20 0,0
19.09.2018 20:00:00 19,2 14,2 22 12 41 22 SW 1017,8 20 0,0
19.09.2018 19:00:00 20,4 14,7 21 11 40 22 SW 1017,5 20 0,0
19.09.2018 18:00:00 20,9 14,8 30 16 47 25 SW 1017,1 42 0,0
19.09.2018 17:00:00 21,5 15,8 28 15 49 27 SSW 1017,0 55 0,0
19.09.2018 16:00:00 22,3 14,4 28 15 52 28 SW 1017,1 35 0,0
19.09.2018 15:00:00 23,2 14,7 30 16 55 30 SW 1017,0 29 0,0
19.09.2018 14:00:00 23,0 15,1 32 17 56 30 SW 1016,9 19 0,0
19.09.2018 13:00:00 22,4 15,5 28 15 50 27 SW 1016,9 19 0,0
19.09.2018 12:00:00 21,5 14,9 32 17 53 29 SSW 1016,8 48 0,0
19.09.2018 11:00:00 19,9 14,5 33 18 50 27 SSW 1016,5 20 0,0
19.09.2018 10:00:00 18,8 14,7 18 10 39 21 SSW 1016,1 44 0,0
19.09.2018 09:00:00 18,0 14,9 17 9 29 16 S 1015,8 40 0,0
19.09.2018 08:00:00 17,7 14,8 13 7 26 14 S 1015,0 41 0,0

tt = temperature
td = dewpoint
ff = wind speed
fx = gusts
dd = wind direction
ppp = reduced air pressure
vv = visibility
rr = precipitation

Next stations